Погода в Гяндже

Погода в Гяндже : погода сейчас, прогноз погоды и архив. Всё, что Вы хотите узнать о погоде в Гяндже!

Поиск расширенной информации на нашем сайте:

Другие новости

Новости СМИ2

Главная страница сайта

Новости сайта

03.07.2017

Напоминаем, что на нашем специализированном сайте Метеоцентр.Азия вы можете получить высокодетализированные автоматические прогнозы погоды по пунктам России, СНГ и мира в авиационном формате (включающие направление и скорость ветра, видимость, явления погоды, количество и форму облачности, нижнюю и верхнюю границу облачности).

Рекомендуем: Высказывания Мастеров восточных единоборств.

Погода в Гяндже - сегодня

Время (UTC), дата Ветер
(°,м/с) 
Видим.   Явления Облачность Т
(°С)
Тd
(°С)
f(%) Тe
(°С)
Pmin
(гПа)
dP
(гПа)
Po
(мм)
O2
(г/м3)
Тmin Tmax R s Состояние
почвы
03 15.11.18 110 (В) 10 км    10/10 600 м 
[Frnb]
+5.8 +4.6 92 +7  1023.4  -0.8  739  291           
06 15.11.18 090 (В) 2000 м    10/10 600 м 
[Frnb]
+6 +5.8 99 +6  1022.4  -1  738  290  +5.7    0.3     
09 15.11.18 090 (В) 2000 м    10/10 600 м 
[Frnb]
+7.1 +5.8 91 +8  1023.4  739  289           
12 15.11.18 320 (СЗ) 2000 м  слаб. дождь  10/10 600 м 
[Frnb]
+6.7 +6.3 97 +8  1023.1  -0.3  739  290           
15 15.11.18 тихо ()   2000 м  слаб. дождь  10/10 600 м 
[Frnb]
+6.6 +6.2 97 +7  1023.4  0.3  739  290           
18 15.11.18 320 (СЗ) 2000 м  слаб. морось{дождь}  10/10 600 м 
[Frnb]
+6.4 +6.2 99 +7  1024.5  1.1  740  290    +7.8     
21 15.11.18 320 (СЗ) 2000 м  слаб. морось  10/10 600 м 
[Frnb]
+6.4 +6.2 99 +7  1024.5  740  290           
00 16.11.18 320 (СЗ) 2000 м  слаб. морось  10/10 600 м 
[Frnb]
+5.1 +4.6 97 +6  1023.6  -0.5  739  292           
06 16.11.18 290 (З) 2000 м  слаб. морось  10/10 600 м 
[Frnb]
+6.5 +6.1 97 +7  1024.3  0.9  740  290  +5.1       
09 16.11.18 290 (З) 2000 м  слаб. морось  10/10 600 м 
[Frnb]
+7.4 +7 97 +8  1023  -1.3  739  289           
12 16.11.18 270 (З) 2000 м  слаб. морось  10/10 600 м 
[Frnb]
+8 +7.4 96 +9  1023.2  0.2  739  288           
15 16.11.18 290 (З) 4000 м  слаб. морось  10/10 600 м 
[Frnb]
+8 +7.4 96 +9  1023.7  0.5  740  288           
18 16.11.18 тихо ()   4000 м  слаб. морось  10/10 600 м 
[Frnb]
+8.6 +7.6 93 +9  1024.7  740  288    +8.3     
21 16.11.18 тихо ()   4000 м  слаб. морось  10/10 600 м 
[Frnb]
+8.4 +7.8 96 +8  1025.5  0.8  741  288           
00 17.11.18 320 (СЗ) 4000 м  слаб. морось  10/10 600 м 
[Frnb]
+8.6 +7.6 93 +10  1025.2  -0.3  741  288           
03 17.11.18 320 (СЗ) 4000 м  дымка{морось}  10/10 600 м 
[Frnb]
+8.8 +7.3 90 +10  1024.1  -1.1  740  288           
06 17.11.18 340 (С) 4000 м  дымка{морось}  10/10 600 м 
[St]
+9.7 +8.1 90 +11  1025.5  1.4  741  287  +8    0.3     
09 17.11.18 320 (СЗ) 20000 м    5/5 1000 м средняя, верхняя 
[Cu hum|Ac cast|Ci]
+12.2 +7.3 72 +13  1024.3  -1.2  740  284           
12 17.11.18 320 (СЗ) 20000 м    5/0 средняя 
[Ac cuf]
+14.4 +6.4 59 +15  1023.1  -1.2  740  282           
15 17.11.18 290 (З) 20000 м    4/0 средняя 
[Ac cuf]
+11 +3.8 61 +10  1024.8  1.7  741  286           
21 17.11.18 290 (З) 10 км    ясно 
+8.4 +1.7 63 +8  1025.1  -0.3  740  289           
00 18.11.18 290 (З) 10 км    ясно 1000 м 
+7.6 +1.7 66 +9  1025.2  0.1  741  290           
03 18.11.18 340 (С) 10 км    5/0 средняя 
[As op]
+7.4 +1.7 67 +8  1025.9  0.7  741  291           
06 18.11.18 320 (СЗ) 20000 м    6/0 средняя 
[Ac cuf]
+9.8 +1.9 58 +10  1026  0.1  741  288  +7.2         
09 18.11.18 320 (СЗ) 20000 м    8/8 1000 м 
[Sc]
+13.1 +2.7 49 +13  1024.6  -1.4  741  284           
Время (UTC), дата Ветер
(°,м/с) 
Видим.   Явления Облачность Т
(°С)
Тd
(°С)
f(%) Тe
(°С)
Pmin
(гПа)
dP
(гПа)
Po
(мм)
O2
(г/м3)
Тmin Tmax R s Состояние
почвы

Для получения пояснительной информации подведите курсор к названию столбца.

ПОГОДА в Гяндже - архив

Всё, что Вы хотите узнать о погоде в Гяндже - удобно и подробно!

Выберите нужную дату (начиная с 1 января 2015* года) и нажмите кнопку "Найти".
Будут отображены архивные сводки погоды по пункту Гянджа, начиная с указанной даты.


Отображать данные в формате CSV (для использования в таблицах Excel)


Внимание! Наш архив погоды предназначен исключительно для личного некоммерческого использования в познавательных целях. Если Вам необходимы официальные справки о состоянии погоды (для производственных, юридических, коммерческих и т.п. целей), обращайтесь в органы Росгидромета.

*Примечание: данная дата относится к архиву по метеостанциям СССР (Россия, СНГ, Балтия).
Архив по метеостанциям Зарубежной Европы и Азии (кроме Китая) хранится 10 дней, по другим регионам земного шара (Китай, Африка, Америка, Австралия, Океания) - 1 день.

Гянджа - район местоположения метеостанции


Название, широта, долгота, высота метеостанции:
Гянджа (город) 40.7°ш. 46.4°д. 311 м над ур. моря [Азербайджан]

Дополнительная информация

В oтличие oт бoльшинства пoгoдных сайтoв мы публикуем пoдрoбную метеoинфoрмацию в детальнoм прoфессиoнальнoм фoрмате.

Характеристики температуры и влажнoсти вoздуха измеряются на высoте 2 м в тени вдали oт зданий и деревьев.
Скoрoсть ветра измеряется на высoте 10 м (на урoвне рoста челoвека скoрoсть ветра ниже в 1.5-2 раза). Если метеoстанция нахoдится в гoрoде или в лесу, тo скoрoсть ветра занижена на 2-4 м/с пo сравнению с oткрытым местoм. Скoрoсть ветра над акватoриями крупных рек и oзёр, а также на вершинах хoлмoв на 2-5 м/с выше, чем в oбычных услoвиях.
Атмoсфернoе давление в разных тoчках местнoсти мoжет значительнo oтличаться oт давления на метеoстанции, в зависимoсти oт услoвий рельефа (при пoдъёме на 10 м давление пoнижается примернo на 1 мм рт.ст.).